This demonstration page uses our WeatherBlox Daily Observations layout. Learn more.

Left ArrowRight Arrow

31.31129, -92.44514

Hourly Observations for December 12, 2015

Temp ( °F °C ) Dew Point ( °F °C ) Humidity (%) Winds ( mph kmh ) Pressure ( in mb ) Visibility ( mi km ) Precip ( " mm )
12:53 am 00:53 Mostly Cloudy 67 19.4 67 19.4 100 100 SE 9 15 29.96 1015 8 13 0.00 0.00
1:53 am 01:53 Cloudy with Mist and Fog 66 18.9 66 18.9 100 100 SE 7 11 29.96 1015 5 8 0.00 0.00
2:21 am 02:21 Cloudy with Mist and Fog 67 19.4 66 18.9 97 97 SE 6 9 29.97 1015 6 10 0.00 0.00
2:53 am 02:53 Cloudy 67 19.4 66 18.9 97 97 SE 8 13 29.96 1015 7 11 0.00 0.00
3:53 am 03:53 Cloudy 69 20.6 67 19.4 93 93 SSE 13 20 29.97 1015 9 14 0.00 0.00
4:53 am 04:53 Cloudy with Mist and Fog 68 20 67 19.4 96 96 SE 9 15 29.97 1015 5 8 0.00 0.00
5:53 am 05:53 Cloudy with Mist and Fog 68 20 67 19.4 96 96 SE 9 15 29.98 1015 5 8 0.00 0.00
6:16 am 06:16 Cloudy with Mist and Fog 68 20 67 19.4 96 96 SE 10 17 29.97 1015 5 8 0.00 0.00
6:41 am 06:41 Cloudy with Mist and Fog 68 20 67 19.4 96 96 SE 10 17 29.97 1015 5 8 0.00 0.00
6:53 am 06:53 Cloudy with Mist and Fog 69 20.6 68 20 96 96 SE 10 17 29.98 1015 5 8 0.00 0.00
7:38 am 07:38 Cloudy with Mist and Fog 70 21.1 68 20 93 93 SE 10 17 29.97 1015 5 8 0.00 0.00
7:53 am 07:53 Cloudy with Mist and Fog 70 21.1 68 20 93 93 SE 10 17 29.99 1016 6 10 0.00 0.00
8:53 am 08:53 Cloudy 71 21.7 69 20.6 94 94 SE 10 17 30.00 1016 8 13 0.00 0.00
9:53 am 09:53 Cloudy 74 23.3 68 20 82 82 SSE 14 22 30.02 1017 10 16 0.00 0.00
10:53 am 10:53 Cloudy 77 25 68 20 74 74 SSE 13 20 30.01 1016 10 16 0.00 0.00
11:16 am 11:16 Partly Cloudy 77 25 68 20 74 74 SSE 20 31 30.00 1016 10 16 0.00 0.00
11:53 am 11:53 Mostly Cloudy 78 25.6 66 18.9 67 67 SSE 20 31 30.00 1016 10 16 0.00 0.00
12:53 pm 12:53 Partly Cloudy 79 26.1 66 18.9 65 65 SSE 20 31 29.97 1015 10 16 0.00 0.00
1:53 pm 13:53 Sunny 78 25.6 65 18.3 64 64 SSE 13 20 29.95 1014 10 16 0.00 0.00
2:53 pm 14:53 Mostly Sunny 78 25.6 65 18.3 64 64 SSE 16 26 29.93 1014 10 16 0.00 0.00
3:53 pm 15:53 Partly Cloudy 77 25 65 18.3 66 66 SSE 17 28 29.93 1014 10 16 0.00 0.00
4:53 pm 16:53 Sunny 75 23.9 65 18.3 71 71 SSE 16 26 29.92 1013 10 16 0.00 0.00
5:53 pm 17:53 Mostly Clear 74 23.3 66 18.9 76 76 SSE 13 20 29.92 1013 10 16 0.00 0.00
6:53 pm 18:53 Partly Cloudy 73 22.8 66 18.9 79 79 SE 14 22 29.92 1013 10 16 0.00 0.00
7:31 pm 19:31 Mostly Cloudy 73 22.8 66 18.9 79 79 SE 13 20 29.91 1013 10 16 0.00 0.00
7:39 pm 19:39 Cloudy 73 22.8 66 18.9 79 79 SE 12 19 29.91 1013 10 16 0.00 0.00
7:53 pm 19:53 Cloudy 73 22.8 66 18.9 79 79 SE 13 20 29.91 1013 10 16 0.00 0.00
8:53 pm 20:53 Mostly Cloudy 72 22.2 65 18.3 79 79 SE 20 31 29.92 1013 10 16 0.00 0.00
9:02 pm 21:02 Mostly Cloudy 72 22.2 65 18.3 79 79 SE 17 28 29.91 1013 10 16 0.00 0.00
9:40 pm 21:40 Cloudy 72 22.2 65 18.3 79 79 SE 15 24 29.91 1013 10 16 0.00 0.00
9:53 pm 21:53 Cloudy 72 22.2 65 18.3 79 79 SE 17 28 29.91 1013 10 16 0.00 0.00
10:53 pm 22:53 Cloudy 71 21.7 65 18.3 81 81 SE 18 30 29.91 1013 10 16 0.00 0.00
11:34 pm 23:34 Mostly Cloudy 71 21.7 65 18.3 81 81 SE 20 31 29.88 1012 10 16 0.00 0.00
11:53 pm 23:53 Partly Cloudy 70 21.1 65 18.3 84 84 SE 17 28 29.90 1013 10 16 0.00 0.00

Powered by AerisWeather